Showing default

KINEIS-5B, 62085

Orbit data source: Space-Track

KINEIS-5B, 62085 is a French payload satellite in SSO that was launched on Mon, 25 Nov 2024 UTC via an ELECTRON launch vehicle from the Rocket Lab Launch Complex (RLLC). Payloads include a variety of satellites, spacecraft, and rockets equipped with specific instruments for various scientific and technological missions. These include communications satellites like Starlink; space stations such as the ISS; scientific satellites like the Hubble; Earth observation satellites from companies like Planet Labs, Umbra, and HawkEye 360; GPS; miniature CubeSats for education and research; and military/defense satellites.

Loading next visibility...
KINEIS-5B details
Identifier
62085, 2024-219E
Orbit
SSO
Last TLE update7 hours ago
Origin
Flag of FRKINEIS (FR)
ManufacturerKINEIS
MissionOperational spacecraft
Bus & MotorCUBESAT 16U, Unknown motor
Mass28 kg wet, 28 kg dry
Launch date (UTC)
2024-11-25 (1 month ago)
Launch vehicle
ELECTRON
Launch site
Rocket Lab Launch Complex (RLLC)
Object type
Payload
Rocket body
Debris
Shape & HBRUnknown
Radar Cross SectionMedium (>0.1 m² and <1 m²)

Expand to show TLE details & history

TLE from 7 hours ago
0 KINEIS-5B
1 62085U 24219E   24361.13895919  .00005882  00000-0  82746-3 0  9993
2 62085  97.9492 159.6699 0001888 176.0350 184.0875 14.77706770  4569
Epoch: 2024-12-26T03:20Z
Definitive object data (Epoch: 2024-12-26T03:20:06.074Z)
Latitude-0.00007°
Longitude14.52195°
Altitude640.91 km
Speed7.537 km/s
True Right ascension10h 38m 40s
True Declination0° 00' 00"
Sunlit
Object was in daylight at TLE epoch
Visualization TLE readout
Latitude13.03698°
Longitude-163.33724°
Altitude637.511 km
Speed7.541 km/s
Apparent Right ascension22h 26m 04s
Apparent Declination-12° 05' 09"
Sunlit
Object is in daylight
Visualization observer readout
Local Sidereal Time09:56:29
Azimuth344.747° N
Elevation-61.413°
Doppler factor1
Orbital elements
Apogee altitude634.942 km
Perigee altitude632.294 km
Semi-major axis7,011.755 km
Eccentricity0.0001888
Inclination97.9492°
RAAN159.6699°
Arg. of periapsis176.035°
True anomaly184.08596°
Mean anomaly184.0875°
Eccentric anomaly184.08673°
Mean motion3.69661 °/min
BSTAR0.00082746
Orbital period97.39 mins
Loading maneuver chart data...
Loading historical data...
Loading historical data...
Loading historical data...
Loading historical data...
Loading historical data...
Loading historical data...
Loading historical data...

KINEIS-5B Visibility forecast

Observer location: undefined°, undefined

Span
Click to sort rows by Start time (UTC) header in descending order
Start Az.
Max El. time (UTC)
Max El. Az.
Max El.
End time (UTC)
End Az.
6 mins2024-12-26 11:35:16.545Z212.785° SW2024-12-26 11:38:16.545Z267.245° W24.623°2024-12-26 11:41:16.545Z317.797° NNW
7 mins2024-12-26 23:25:16.545Z26.842° NE2024-12-26 23:28:16.545Z108.159° ESE40.013°2024-12-26 23:32:16.545Z179.371° S
6 mins2024-12-27 10:21:16.545Z135.265° SSE2024-12-27 10:24:16.545Z62.244° ENE34.389°2024-12-27 10:27:16.545Z5.706° NNE
|